Location: Oberkirch
(48.5323°N, 8.0787°E)
Time: 11:24:29
(UTC+00:00)

AO-91 - Visible Passes

Search period start: 15 March 2026 00:00
Search period end: 25 March 2026 00:00
Orbit: 427 x 639 km, 97.5° (Epoch: 14 March)

Date Brightness Start Highest point End Pass type
(mag) Time Alt. Az. Time Alt. Az. Time Alt. Az.
15 Mar ? 20:12:23 10° NNE 20:13:06 14° NNE 20:13:06 14° NNE visible
15 Mar ? 21:47:21 10° NNW 21:48:29 15° NNW 21:48:29 15° NNW visible
16 Mar ? 20:03:00 10° NNE 20:03:41 14° NNE 20:03:41 14° NNE visible
16 Mar ? 21:37:40 10° N 21:39:03 17° NNW 21:39:03 17° NNW visible
17 Mar ? 19:53:37 10° NNE 19:54:14 13° NE 19:54:14 13° NE visible
17 Mar ? 21:28:00 10° N 21:29:35 19° NNW 21:29:35 19° NNW visible
18 Mar ? 19:44:16 10° NE 19:44:45 12° NE 19:44:45 12° NE visible
18 Mar ? 21:18:20 10° N 21:20:07 21° NNW 21:20:07 21° NNW visible
19 Mar ? 19:34:58 10° NE 19:35:13 11° NE 19:35:13 11° NE visible
19 Mar ? 21:08:42 10° N 21:10:35 23° N 21:10:35 23° N visible
20 Mar ? 20:59:03 10° N 21:01:02 25° N 21:01:02 25° N visible
21 Mar ? 20:49:24 10° N 20:51:27 27° N 20:51:27 27° N visible
21 Mar ? 22:26:22 10° NW 22:26:49 10° NW 22:26:49 10° NW visible
22 Mar ? 20:39:45 10° NNE 20:41:51 27° NNE 20:41:51 27° NNE visible
22 Mar ? 22:15:53 10° NNW 22:17:13 12° NW 22:17:13 12° NW visible
23 Mar ? 20:30:06 10° NNE 20:32:12 27° NNE 20:32:12 27° NNE visible
23 Mar ? 22:05:45 10° NNW 22:07:33 15° NW 22:07:33 15° NW visible
24 Mar ? 20:20:28 10° NNE 20:22:31 26° NNE 20:22:31 26° NNE visible
24 Mar ? 21:55:44 10° NNW 21:57:52 17° NW 21:57:52 17° NW visible
